Погода в Детройте

США     42°19′58″N   83°02′35″W
темп.,
°C
ветер,
м/с
пор.,
м/с
влажн.,
%
обл.,
%
осадки,
мм/ч
давл.,
гПа
погр.,
м
16 октября, сб
сб1623:00+14с268980 0.1 1008298
02:00+14сз2588100 0.3 1007384
05:00+12сз61288100 5.3 1007649
08:00+11сз41178100 6.3 10081034
11:00+13зсз69600 0.0 10101222
14:00+15з8105175 0.0 10101851
17:00+13з71052100 0.0 10121808
20:00+12з61156100 0.0 10141572
17 октября, вс
вс1723:00+12з51253100 0.0 10141511
02:00+11з410585 0.0 1014641
05:00+10з410565 0.0 1015594
08:00+9з38605 0.0 1016295
11:00+12зсз59470 0.0 10161264
14:00+16зсз610405 0.0 10151797
17:00+17зсз611395 0.0 10142419
20:00+14з612490 0.0 10161104
18 октября, пн
пн1823:00+12з410560 0.0 1016598
02:00+11зсз410572 0.0 1017428
05:00+10сз395916 0.0 1018468
08:00+9сз37620 0.0 1019344
11:00+13сз36490 0.0 1020790
14:00+17зсз35360 0.0 10191303
17:00+17зсз35360 0.0 10181393
20:00+15з22490 0.0 101920
19 октября, вт
вт1923:00+13юз24570 0.0 101987
02:00+12зюз36700 0.0 1020144
05:00+11зюз37670 0.0 1020176
08:00+11зюз37700 0.0 1020167
11:00+15зюз47540 0.0 1020367
14:00+20зюз57450 0.0 10181019
17:00+20зюз57465 0.0 10171218
20:00+17зюз496374 0.0 1018392
20 октября, ср
ср2023:00+15зюз310665 0.0 1018322
02:00+14зюз310655 0.0 1019286
05:00+13зюз396689 0.0 1019260
08:00+12юз38715 0.0 1019207
11:00+16юз585544 0.0 1019419
14:00+20юз57425 0.0 1017833
17:00+20юз58460 0.0 1015965
20:00+17юз410605 0.0 1015444